[[{"header":{"parameterUnit":"m.s-1","parameterCategory":2,"la1":30.2991,"la2":30.254,"lo1":-89.0895,"lo2":-89.0444,"dy":0.0017,"dx":0.0017,"nx":28,"ny":28,"refTime":"2025-07-17T03:00:00:Z","depth":"0","parameterNumber":2,"parameterNumberName":"U-component_of_CURRENTS"},"data":[0,0,0,0,0,0,0,0,0,0,0,0,0,0,0,0,0,0,0,0,0,0,0,0,0,0,0,0,0,0,0,0,0,0,0,0,0,0,0,0,0,0,0,0,0,0,0,0,0,0,0,0,0,0,0,0,0,0,0.2823,0.2823,0,0.2836,0.2836,0.2836,0.2837,0.2837,0.2837,0.2837,0.2823,0.2823,0.2822,0,0,0,0,0,0,0,0,0,0,0,0,0,0.2835,0.2835,0.2823,0.2823,0.2823,0.2836,0.2836,0.2836,0.2837,0.2837,0.2837,0.2837,0.2823,0.2823,0.2822,0,0,0,0,0,0,0,0,0,0,0,0,0,0.2836,0.2834,0.2822,0.2826,0.2827,0.2836,0.2836,0.2836,0.2837,0.2837,0.2837,0.2837,0.2823,0.2823,0.2822,0.2819,0,0,0.2821,0.282,0,0,0,0,0,0,0,0,0.2836,0.2835,0.2825,0.2826,0.2827,0.2836,0.2836,0.283,0.2837,0.2831,0.2837,0.2837,0.2826,0.2825,0.2826,0.2818,0.2818,0.282,0.282,0.282,0.282,0,0,0,0,0,0,0,0.2836,0.2835,0.2826,0.2826,0.2827,0.2841,0.284,0.2835,0.2827,0.2832,0.2832,0.2837,0.2826,0.2826,0.2825,0.2818,0.282,0.282,0.282,0.2819,0.283,0.2831,0,0,0,0,0,0,0.2835,0.2834,0.2826,0.2827,0.2833,0.284,0.284,0.2832,0.2827,0.2828,0.2837,0.2837,0.2827,0.2826,0.2825,0.2833,0.282,0.2819,0.2819,0.283,0.2831,0.2831,0,0,0,0,0,0,0.2835,0.2834,0.2825,0.2833,0.2833,0.284,0.2831,0.2832,0.2835,0.2832,0.2831,0.2839,0.2827,0.2826,0.2827,0.2832,0.2819,0.2819,0.2829,0.283,0.2831,0.284,0,0,0,0,0,0,0.2835,0.2833,0.2829,0.2833,0.2833,0.2828,0.2832,0.2833,0.2838,0.2838,0.2833,0.2832,0.2827,0.2828,0.2827,0.2831,0.2818,0.2828,0.2829,0.2831,0.2839,0.2842,0.2844,0,0,0,0,0,0.2835,0.2819,0.2828,0.2828,0.2826,0.2828,0.2829,0.2834,0.2838,0.2837,0.2841,0.2832,0.2835,0.2828,0.2826,0.283,0.2828,0.2829,0.2831,0.2838,0.2841,0.2844,0,0,0,0,0,0,0.2826,0.2818,0.2828,0.2812,0.2824,0.2829,0.2826,0.2836,0.2838,0.2839,0.2837,0.2835,0.2843,0.2836,0.2829,0.2839,0.2831,0.2832,0.2838,0.284,0.2842,0.2849,0.2818,0,0,0,0,0,0.2823,0.2805,0.2815,0.2806,0.2809,0.2822,0.2825,0.2832,0.2836,0.2837,0.2836,0.2839,0.2847,0.2843,0.2847,0.2845,0.2867,0.2848,0.2851,0.2852,0.2858,0.2909,0.2917,0.2836,0.2836,0.2836,0,0,0.2815,0.2813,0.2801,0.2803,0.281,0.2812,0.2822,0.2826,0.2831,0.2835,0.2835,0.2847,0.2851,0.2856,0.2858,0.2848,0.2886,0.2854,0.2855,0.286,0.2912,0.292,0.2927,0.2837,0.2837,0.2836,0,0,0.2796,0.2792,0.2776,0.2784,0.2798,0.2805,0.2808,0.2818,0.2824,0.2831,0.2844,0.2861,0.2856,0.2869,0.2873,0.2889,0.2902,0.2887,0.2893,0.2943,0.2951,0.2957,0.2991,0.3,0.2881,0.2881,0.2881,0,0.2788,0.2778,0.2776,0.2774,0.2786,0.2801,0.2807,0.2809,0.2822,0.2847,0.283,0.2871,0.2864,0.2897,0.2896,0.2893,0.2921,0.2881,0.2947,0.2954,0.2961,0.2993,0.3004,0.2881,0.2881,0.2881,0.2881,0,0.2767,0.2765,0.2758,0.2759,0.2772,0.2775,0.2791,0.2806,0.2818,0.284,0.2879,0.2877,0.291,0.2905,0.2896,0.2944,0.2949,0.295,0.294,0.2969,0.3002,0.3012,0.2882,0.2882,0.2882,0.2882,0,0,0.2718,0.2738,0.2734,0.2748,0.2769,0.2774,0.2796,0.2833,0.2867,0.2872,0.2922,0.2923,0.2947,0.2953,0.2955,0.2977,0.3033,0.2977,0.2979,0.3009,0.3142,0.3143,0.3154,0.3052,0.3054,0.3056,0.3143,0,0.2704,0.2704,0.2723,0.2732,0.2738,0.2778,0.2801,0.2843,0.2878,0.2924,0.2948,0.2984,0.2957,0.2977,0.3,0.3038,0.3063,0.3009,0.3109,0.3112,0.311,0.3168,0.3158,0.3236,0.3154,0.3156,0.3157,0,0.2676,0.2683,0.2695,0.274,0.2748,0.2759,0.283,0.2854,0.2933,0.2973,0.3028,0.3051,0.3094,0.3058,0.3136,0.3107,0.3124,0.3138,0.3142,0.3148,0.3134,0.3195,0.3259,0.3253,0.3174,0.3172,0.3171,0,0.2646,0.2662,0.2676,0.2686,0.2735,0.2762,0.2793,0.2874,0.2923,0.3011,0.3065,0.3124,0.3163,0.3197,0.3222,0.3191,0.3307,0.3274,0.3289,0.3289,0.3303,0.3301,0.3374,0.333,0.333,0.333,0.333,0,0.2633,0.2642,0.2659,0.2664,0.2696,0.274,0.2796,0.2856,0.295,0.3018,0.3081,0.3149,0.3201,0.3268,0.3269,0.3328,0.3356,0.331,0.3323,0.3305,0.3301,0.3314,0.3271,0.3333,0.3333,0.3332,0.3331,0,0.2636,0.2636,0.2648,0.2676,0.2684,0.2712,0.2792,0.2839,0.2934,0.3028,0.306,0.3195,0.3288,0.3334,0.3411,0.3402,0.3353,0.3451,0.3418,0.3425,0.3406,0.3363,0.3071,0.2994,0.3482,0.3482,0.3483,0,0.2644,0.2642,0.2648,0.2646,0.2664,0.2701,0.2733,0.2825,0.2883,0.305,0.3095,0.323,0.3314,0.3447,0.3486,0.3528,0.3377,0.3524,0.3453,0.3426,0.3389,0.3036,0.2968,0.3474,0.3475,0.3475,0.3475,0,0.2657,0.2651,0.2673,0.2656,0.2664,0.2681,0.2729,0.2774,0.2887,0.2968,0.3087,0.3171,0.3349,0.3432,0.3527,0.3538,0.3359,0.3531,0.3529,0.3414,0.3009,0.2938,0.3381,0.3479,0.3479,0.3478,0.3478,0.3478,0.267,0.2681,0.2672,0.2671,0.2663,0.2643,0.2628,0.2693,0.2757,0.2844,0.3,0.31,0.3364,0.351,0.3501,0.3564,0.3349,0.3528,0.3487,0.3134,0.302,0.3458,0.3551,0.3551,0.3551,0.3551,0.3551,0,0.2664,0.2672,0.2673,0.2635,0.2586,0.2594,0.2604,0.2569,0.2585,0.2743,0.2818,0.309,0.3261,0.3432,0.3614,0.3564,0.3283,0.3508,0.3081,0.3031,0.3515,0.349,0.3543,0.3543,0.3543,0.3543,0.3543,0.3543,0.2655,0.2644,0.2641,0.2545,0.2508,0.24,0.237,0.2344,0.2417,0.2522,0.2661,0.2813,0.3189,0.3468,0.3561,0.3518,0.3223,0.3033,0.2956,0.3452,0.3451,0.345,0.342,0.3458,0.3458,0.2342,0.2335,0.2329]},{"header":{"parameterUnit":"m.s-1","parameterCategory":2,"la1":30.2991,"la2":30.254,"lo1":-89.0895,"lo2":-89.0444,"dy":0.0017,"dx":0.0017,"nx":28,"ny":28,"refTime":"2025-07-17T03:00:00:Z","depth":"0","parameterNumber":3,"parameterNumberName":"V-component_of_CURRENTS"},"data":[0,0,0,0,0,0,0,0,0,0,0,0,0,0,0,0,0,0,0,0,0,0,0,0,0,0,0,0,0,0,0,0,0,0,0,0,0,0,0,0,0,0,0,0,0,0,0,0,0,0,0,0,0,0,0,0,0,0,0.0572,0.0571,0,0.0503,0.0502,0.0501,0.0456,0.0456,0.0455,0.0455,0.0361,0.0358,0.0356,0,0,0,0,0,0,0,0,0,0,0,0,0,0.06,0.0601,0.0572,0.0571,0.057,0.0503,0.0502,0.0501,0.0456,0.0456,0.0455,0.0455,0.0361,0.0359,0.0356,0,0,0,0,0,0,0,0,0,0,0,0,0,0.0565,0.0601,0.0572,0.054,0.0537,0.0503,0.0502,0.0501,0.0456,0.0456,0.0455,0.0455,0.0362,0.0359,0.0356,0.034,0,0,0.0345,0.0343,0,0,0,0,0,0,0,0,0.0567,0.0564,0.0546,0.0543,0.0539,0.0489,0.0477,0.0446,0.0456,0.0486,0.0455,0.0455,0.0402,0.0395,0.0382,0.0336,0.0332,0.0345,0.0343,0.0341,0.034,0,0,0,0,0,0,0,0.057,0.0566,0.0544,0.0545,0.0541,0.0508,0.0503,0.0471,0.0445,0.0483,0.048,0.0474,0.04,0.0385,0.0379,0.033,0.0345,0.0342,0.0339,0.0338,0.026,0.026,0,0,0,0,0,0,0.0584,0.0569,0.0546,0.0542,0.0553,0.0508,0.0502,0.0504,0.0446,0.0437,0.0474,0.0472,0.0392,0.0383,0.0376,0.0366,0.0341,0.0338,0.0336,0.026,0.026,0.026,0,0,0,0,0,0,0.0585,0.0583,0.0549,0.0554,0.0547,0.0508,0.051,0.0503,0.0491,0.044,0.043,0.047,0.0391,0.0381,0.0352,0.0361,0.0336,0.0333,0.026,0.026,0.026,0.0339,0,0,0,0,0,0,0.0586,0.0584,0.059,0.0555,0.0548,0.0536,0.0511,0.0502,0.0488,0.0484,0.0433,0.0424,0.039,0.0358,0.0349,0.0356,0.033,0.026,0.026,0.026,0.0336,0.0341,0.0346,0,0,0,0,0,0.0587,0.0597,0.0591,0.0588,0.0558,0.0537,0.053,0.05,0.0488,0.0487,0.0452,0.0425,0.0352,0.0355,0.0345,0.0351,0.026,0.026,0.026,0.0334,0.034,0.0346,0,0,0,0,0,0,0.0607,0.0592,0.0585,0.0588,0.0569,0.053,0.0525,0.0506,0.0477,0.0476,0.0427,0.0415,0.0393,0.0359,0.0365,0.0327,0.0301,0.0299,0.036,0.0366,0.0371,0.0396,0.0327,0,0,0,0,0,0.0618,0.0624,0.06,0.0602,0.0597,0.0563,0.0551,0.0534,0.0504,0.0491,0.0456,0.0417,0.0384,0.0367,0.0331,0.0313,0.0283,0.0308,0.0313,0.0318,0.033,0.029,0.0293,0.026,0.026,0.026,0,0,0.0622,0.0618,0.0618,0.0607,0.059,0.059,0.0555,0.0545,0.0545,0.0485,0.0474,0.0433,0.0382,0.0362,0.0349,0.0336,0.0311,0.0318,0.0323,0.0332,0.029,0.0294,0.0297,0.0261,0.0261,0.0261,0,0,0.064,0.0636,0.0649,0.0642,0.0628,0.061,0.0612,0.0582,0.0569,0.0551,0.051,0.0478,0.0426,0.0396,0.0372,0.0382,0.0338,0.0367,0.0414,0.0375,0.0378,0.038,0.0349,0.0347,0.037,0.037,0.037,0,0.0647,0.0665,0.0646,0.066,0.0662,0.0626,0.0641,0.0622,0.0586,0.0585,0.0558,0.0489,0.0444,0.0423,0.0424,0.0395,0.0368,0.0399,0.0383,0.0385,0.0385,0.0353,0.035,0.0374,0.0374,0.0373,0.0373,0,0.0676,0.0692,0.0699,0.071,0.0708,0.0715,0.0695,0.0691,0.067,0.065,0.0625,0.056,0.0522,0.0498,0.0463,0.0449,0.0426,0.0396,0.0375,0.0394,0.0358,0.0354,0.0379,0.0378,0.0377,0.0376,0,0,0.0682,0.0716,0.0716,0.0747,0.0741,0.0749,0.0754,0.0754,0.0775,0.072,0.0729,0.0658,0.0625,0.0596,0.0543,0.0506,0.0482,0.0461,0.0457,0.0442,0.0403,0.0401,0.0396,0.045,0.0449,0.0449,0.0377,0,0.0711,0.0766,0.0763,0.0811,0.0843,0.0826,0.0842,0.0838,0.0823,0.0822,0.075,0.0734,0.0661,0.0649,0.0598,0.0516,0.0475,0.0505,0.0376,0.0372,0.0378,0.0393,0.0483,0.0428,0.0373,0.0372,0.0372,0,0.0737,0.0778,0.0838,0.0897,0.0908,0.0929,0.0968,0.0978,0.0962,0.0952,0.0913,0.0853,0.0792,0.0725,0.0592,0.0615,0.0519,0.0446,0.0441,0.0412,0.0364,0.0397,0.0423,0.0332,0.0365,0.0366,0.0366,0,0.0773,0.0829,0.089,0.0907,0.0958,0.0987,0.1012,0.1021,0.1057,0.1037,0.1052,0.0957,0.0925,0.0788,0.0629,0.0611,0.0484,0.0435,0.0341,0.0339,0.0378,0.0381,0.0313,0.034,0.034,0.034,0.034,0,0.0815,0.0865,0.0921,0.0956,0.1039,0.1052,0.1132,0.1142,0.1173,0.1228,0.1126,0.114,0.094,0.0835,0.0671,0.0507,0.0511,0.0359,0.0324,0.0407,0.0413,0.0304,0.0262,0.0337,0.0338,0.0339,0.0339,0,0.0864,0.0887,0.0965,0.1033,0.1062,0.1126,0.1222,0.1282,0.1298,0.1363,0.1361,0.1284,0.1156,0.0948,0.0738,0.0583,0.0381,0.0346,0.0462,0.0442,0.0264,0.0225,0.014,0.0118,0.0232,0.0231,0.0231,0,0.0898,0.0941,0.103,0.1074,0.1113,0.121,0.1279,0.1338,0.141,0.1458,0.1494,0.1399,0.1354,0.1049,0.0775,0.0502,0.0392,0.0385,0.0357,0.0279,0.0208,0.0184,0.0169,0.0437,0.0438,0.0439,0.044,0,0.0959,0.0984,0.1061,0.1157,0.1232,0.1329,0.1435,0.1517,0.1589,0.1652,0.1709,0.1681,0.1423,0.1217,0.0852,0.0644,0.0385,0.0398,0.029,0.035,0.0347,0.0302,0.0456,0.045,0.0449,0.0449,0.0448,0.0448,0.1005,0.1072,0.1152,0.1256,0.1335,0.1437,0.1531,0.1644,0.1774,0.1889,0.1878,0.1937,0.1674,0.1204,0.087,0.0447,0.0435,0.0341,0.0296,0.0272,0.0274,0.0451,0.0418,0.0417,0.0416,0.0415,0.0415,0,0.1043,0.1131,0.1236,0.1351,0.1438,0.1471,0.1626,0.1724,0.188,0.2049,0.2121,0.2215,0.1806,0.1385,0.0818,0.0454,0.0312,0.0265,0.0262,0.0243,0.0384,0.0416,0.0415,0.0415,0.0416,0.0416,0.0416,0.0416,0.1063,0.1168,0.1244,0.1405,0.1491,0.1618,0.1705,0.1852,0.2022,0.2321,0.2549,0.2694,0.2619,0.1429,0.0678,0.0428,0.0203,0.0144,0.0013,0.0117,0.0121,0.0124,0.0143,0.0085,0.0085,-0.0055,-0.0057,-0.0058]}],[{"header":{"parameterUnit":"m.s-1","parameterCategory":2,"la1":30.2991,"la2":30.254,"lo1":-89.0895,"lo2":-89.0444,"dy":0.0017,"dx":0.0017,"nx":28,"ny":28,"refTime":"2025-07-17T03:00:00:Z","depth":"2","parameterNumber":2,"parameterNumberName":"U-component_of_CURRENTS"},"data":[0,0,0,0,0,0,0,0,0,0,0,0,0,0,0,0,0,0,0,0,0,0,0,0,0,0,0,0,0,0,0,0,0,0,0,0,0,0,0,0,0,0,0,0,0,0,0,0,0,0,0,0,0,0,0,0,0,0,0.2781,0.2781,0,0.2795,0.2795,0.2795,0.2797,0.2797,0.2797,0.2797,0.2785,0.2785,0.2785,0,0,0,0,0,0,0,0,0,0,0,0,0,0.2797,0.2796,0.2781,0.2781,0.2781,0.2795,0.2795,0.2795,0.2797,0.2797,0.2797,0.2797,0.2785,0.2785,0.2785,0,0,0,0,0,0,0,0,0,0,0,0,0,0.2797,0.2796,0.2781,0.2786,0.2786,0.2795,0.2795,0.2795,0.2797,0.2797,0.2797,0.2797,0.2785,0.2785,0.2784,0.278,0,0,0.2783,0.2783,0,0,0,0,0,0,0,0,0.2797,0.2796,0.2784,0.2785,0.2786,0.2796,0.2796,0.2789,0.2797,0.2791,0.2797,0.2797,0.2787,0.2787,0.2787,0.2779,0.2779,0.2783,0.2782,0.2782,0.2782,0,0,0,0,0,0,0,0.2797,0.2796,0.2785,0.2785,0.2786,0.2801,0.28,0.2795,0.2787,0.2792,0.2792,0.2796,0.2787,0.2788,0.2787,0.2779,0.2783,0.2782,0.2782,0.2782,0.2793,0.2794,0,0,0,0,0,0,0.2796,0.2795,0.2784,0.2785,0.2794,0.2801,0.28,0.2791,0.2788,0.2788,0.2796,0.2797,0.2789,0.2787,0.2786,0.2795,0.2782,0.2782,0.2781,0.2792,0.2793,0.2794,0,0,0,0,0,0,0.2796,0.2794,0.2784,0.2793,0.2793,0.28,0.279,0.2791,0.2795,0.2792,0.2791,0.28,0.2789,0.2787,0.2789,0.2794,0.2781,0.2781,0.2792,0.2793,0.2793,0.2804,0,0,0,0,0,0,0.2796,0.2794,0.279,0.2792,0.2792,0.2787,0.2791,0.2792,0.2798,0.2799,0.2794,0.2793,0.2788,0.279,0.2789,0.2793,0.2781,0.2791,0.2792,0.2793,0.2803,0.2805,0.2807,0,0,0,0,0,0.2796,0.2779,0.2789,0.2788,0.2785,0.2787,0.2788,0.2793,0.2798,0.2797,0.2802,0.2793,0.2797,0.279,0.2789,0.2793,0.279,0.2792,0.2793,0.2802,0.2805,0.2807,0,0,0,0,0,0,0.2789,0.2779,0.2789,0.2772,0.2783,0.2788,0.2786,0.2795,0.2798,0.28,0.2798,0.2797,0.2805,0.2798,0.2791,0.2802,0.2794,0.2795,0.2801,0.2803,0.2806,0.2812,0.278,0,0,0,0,0,0.2786,0.2767,0.2776,0.2766,0.2769,0.2782,0.2785,0.2792,0.2796,0.2798,0.2797,0.2801,0.2809,0.2805,0.281,0.2807,0.2829,0.2812,0.2814,0.2815,0.2821,0.2871,0.2879,0.2798,0.2798,0.2798,0,0,0.2779,0.2775,0.2763,0.2763,0.277,0.2772,0.2782,0.2787,0.2792,0.2795,0.2797,0.2809,0.2813,0.2819,0.2821,0.2811,0.2848,0.2817,0.2818,0.2823,0.2874,0.2882,0.2889,0.2799,0.2799,0.2799,0,0,0.276,0.2755,0.2738,0.2746,0.2759,0.2766,0.2769,0.2779,0.2786,0.2793,0.2806,0.2824,0.2819,0.2832,0.2836,0.2852,0.2864,0.2851,0.2857,0.2906,0.2913,0.292,0.2952,0.2962,0.2844,0.2844,0.2844,0,0.2753,0.2741,0.2738,0.2736,0.2748,0.2763,0.2769,0.2771,0.2783,0.2809,0.2792,0.2834,0.2827,0.286,0.2859,0.2856,0.2884,0.2845,0.291,0.2917,0.2923,0.2955,0.2965,0.2845,0.2845,0.2845,0.2845,0,0.2732,0.2729,0.2722,0.2722,0.2734,0.2738,0.2753,0.2768,0.2781,0.2803,0.2842,0.2841,0.2874,0.2868,0.286,0.2907,0.2912,0.2913,0.2903,0.2932,0.2963,0.2974,0.2846,0.2846,0.2845,0.2845,0,0,0.2679,0.2702,0.2696,0.2711,0.2732,0.2736,0.2758,0.2795,0.2828,0.2835,0.2884,0.2885,0.291,0.2916,0.2918,0.294,0.2996,0.294,0.2942,0.2972,0.3102,0.3099,0.311,0.3015,0.3017,0.3018,0.3104,0,0.2664,0.2666,0.2685,0.2693,0.27,0.274,0.2763,0.2804,0.2839,0.2885,0.2909,0.2946,0.2919,0.2941,0.2963,0.3,0.3025,0.2972,0.307,0.3073,0.3067,0.3123,0.2834,0.2886,0.3114,0.3116,0.3117,0,0.2633,0.264,0.2655,0.2701,0.2709,0.2721,0.279,0.2815,0.2894,0.2934,0.2989,0.3012,0.3055,0.302,0.3096,0.3068,0.3085,0.3098,0.3103,0.3105,0.309,0.2895,0.2897,0.3135,0.3133,0.3132,0.3131,0,0.2598,0.2616,0.2634,0.2644,0.2694,0.2723,0.2754,0.2835,0.2884,0.2971,0.3025,0.3084,0.3123,0.3157,0.3181,0.3151,0.3265,0.3232,0.3244,0.3243,0.3018,0.2995,0.3288,0.3287,0.3287,0.3287,0.3287,0,0.2583,0.2593,0.2616,0.2621,0.2655,0.2699,0.2757,0.2817,0.2911,0.2978,0.3042,0.3109,0.3162,0.3226,0.3228,0.3283,0.3313,0.3263,0.3276,0.3014,0.2991,0.3219,0.321,0.329,0.3289,0.3289,0.3288,0,0.2571,0.2589,0.26,0.263,0.2643,0.2669,0.2754,0.28,0.2897,0.2989,0.3021,0.3155,0.3246,0.3291,0.3366,0.3355,0.3395,0.3401,0.3089,0.3064,0.3322,0.3312,0.3425,0.3426,0.3426,0.3427,0.3427,0,0.2578,0.2574,0.2584,0.2599,0.262,0.2659,0.2694,0.2788,0.2844,0.301,0.3053,0.3187,0.3262,0.3391,0.3369,0.3394,0.3445,0.3176,0.3067,0.3341,0.3342,0.3331,0.332,0.2759,0.2754,0.275,0.2746,0,0.2587,0.2581,0.2603,0.2591,0.2617,0.2638,0.269,0.2734,0.2846,0.2914,0.3027,0.3102,0.323,0.3153,0.3223,0.3189,0.3148,0.3099,0.3469,0.2791,0.2726,0.2723,0.2732,0.271,0.2714,0.2716,0.2718,0.272,0.2597,0.2586,0.2579,0.2575,0.261,0.2595,0.258,0.2641,0.269,0.2746,0.29,0.2906,0.2968,0.2925,0.2849,0.2785,0.301,0.2876,0.2882,0.2894,0.2824,0.2766,0.2743,0.2746,0.275,0.2752,0.2755,0,0.2563,0.2544,0.2544,0.2518,0.2519,0.2543,0.2551,0.2503,0.2492,0.2574,0.2614,0.2421,0.2411,0.2462,0.2311,0.2351,0.2237,0.2259,0.2079,0.2121,0.2157,0.2041,0.1756,0.1753,0.1749,0.1746,0,0,0.2541,0.2517,0.2473,0.2429,0.2407,0.233,0.2302,0.2241,0.2243,0.2172,0.2129,0.23,0.2412,0.2046,0.2017,0.1866,0.1958,0.1778,0.2589,0.2419,0.2449,0.2538,0.2414,0,0,0,0,0]},{"header":{"parameterUnit":"m.s-1","parameterCategory":2,"la1":30.2991,"la2":30.254,"lo1":-89.0895,"lo2":-89.0444,"dy":0.0017,"dx":0.0017,"nx":28,"ny":28,"refTime":"2025-07-17T03:00:00:Z","depth":"2","parameterNumber":3,"parameterNumberName":"V-component_of_CURRENTS"},"data":[0,0,0,0,0,0,0,0,0,0,0,0,0,0,0,0,0,0,0,0,0,0,0,0,0,0,0,0,0,0,0,0,0,0,0,0,0,0,0,0,0,0,0,0,0,0,0,0,0,0,0,0,0,0,0,0,0,0,0.0512,0.0511,0,0.0443,0.0442,0.0441,0.0397,0.0397,0.0397,0.0397,0.0303,0.0301,0.0298,0,0,0,0,0,0,0,0,0,0,0,0,0,0.0543,0.0543,0.0512,0.0511,0.0511,0.0443,0.0442,0.0441,0.0397,0.0397,0.0397,0.0397,0.0304,0.0301,0.0298,0,0,0,0,0,0,0,0,0,0,0,0,0,0.0506,0.0543,0.0512,0.0481,0.0478,0.0443,0.0442,0.0441,0.0397,0.0397,0.0397,0.0396,0.0305,0.0301,0.0298,0.0282,0,0,0.0287,0.0286,0,0,0,0,0,0,0,0,0.0508,0.0505,0.0487,0.0483,0.048,0.0429,0.0419,0.0387,0.0397,0.0427,0.0397,0.0396,0.0344,0.0337,0.0324,0.0277,0.0273,0.0287,0.0285,0.0283,0.0282,0,0,0,0,0,0,0,0.0511,0.0507,0.0484,0.0486,0.0481,0.0449,0.0444,0.0412,0.0386,0.0424,0.0421,0.0415,0.0342,0.0327,0.0321,0.0272,0.0287,0.0284,0.0282,0.028,0.0202,0.0202,0,0,0,0,0,0,0.0525,0.051,0.0486,0.0482,0.0495,0.0449,0.0443,0.0445,0.0387,0.0379,0.0415,0.0413,0.0333,0.0325,0.0318,0.0308,0.0283,0.028,0.0278,0.0202,0.0202,0.0202,0,0,0,0,0,0,0.0526,0.0524,0.0489,0.0495,0.0488,0.045,0.0451,0.0444,0.0432,0.0381,0.0372,0.0412,0.0333,0.0322,0.0294,0.0303,0.0278,0.0275,0.0202,0.0202,0.0202,0.028,0,0,0,0,0,0,0.0528,0.0525,0.0531,0.0496,0.0488,0.0477,0.0451,0.0443,0.0429,0.0426,0.0375,0.0366,0.0332,0.03,0.0291,0.0298,0.0273,0.0202,0.0202,0.0202,0.0278,0.0283,0.0287,0,0,0,0,0,0.0529,0.0539,0.0532,0.0529,0.0498,0.0477,0.047,0.044,0.043,0.0428,0.0394,0.0367,0.0293,0.0297,0.0287,0.0293,0.0202,0.0202,0.0202,0.0275,0.0282,0.0287,0,0,0,0,0,0,0.055,0.0534,0.0526,0.053,0.051,0.047,0.0466,0.0447,0.0419,0.0417,0.0369,0.0357,0.0335,0.0301,0.0307,0.0269,0.0243,0.0241,0.0302,0.0308,0.0312,0.0337,0.027,0,0,0,0,0,0.056,0.0566,0.0541,0.0544,0.0538,0.0505,0.0492,0.0475,0.0445,0.0433,0.0398,0.0359,0.0326,0.0308,0.0273,0.0255,0.0224,0.025,0.0255,0.026,0.0271,0.023,0.0233,0.0202,0.0202,0.0202,0,0,0.0566,0.056,0.0561,0.0549,0.0531,0.0531,0.0497,0.0486,0.0486,0.0427,0.0416,0.0375,0.0324,0.0303,0.029,0.0278,0.0252,0.026,0.0264,0.0274,0.0231,0.0234,0.0237,0.0202,0.0202,0.0202,0,0,0.0583,0.058,0.0591,0.0584,0.057,0.0552,0.0554,0.0523,0.0511,0.0493,0.0451,0.042,0.0368,0.0337,0.0313,0.0323,0.0279,0.0308,0.0355,0.0315,0.0317,0.0319,0.0288,0.0286,0.0311,0.0311,0.0312,0,0.0591,0.0608,0.0589,0.0602,0.0603,0.0568,0.0582,0.0564,0.0528,0.0525,0.05,0.0431,0.0386,0.0363,0.0365,0.0336,0.0308,0.034,0.0323,0.0324,0.0325,0.0292,0.0289,0.0315,0.0315,0.0314,0.0314,0,0.0619,0.0635,0.0641,0.0651,0.0649,0.0655,0.0635,0.0631,0.0611,0.059,0.0564,0.05,0.0462,0.0438,0.0404,0.0389,0.0366,0.0336,0.0315,0.0333,0.0296,0.0292,0.0321,0.0319,0.0318,0.0317,0,0,0.0622,0.0658,0.0657,0.0686,0.0681,0.0687,0.0692,0.0691,0.0711,0.0657,0.0665,0.0595,0.0563,0.0533,0.0482,0.0444,0.042,0.04,0.0396,0.0381,0.0339,0.0337,0.0332,0.0387,0.0387,0.0387,0.0313,0,0.0648,0.0703,0.0702,0.0747,0.0776,0.0761,0.0778,0.0772,0.0757,0.0755,0.0684,0.0668,0.0598,0.0586,0.0536,0.0453,0.0412,0.0443,0.0313,0.0309,0.0315,0.0328,0.0293,0.0226,0.0309,0.0308,0.0307,0,0.0671,0.0711,0.077,0.0828,0.0838,0.0859,0.0896,0.0905,0.0889,0.088,0.0842,0.0782,0.0722,0.0658,0.0526,0.055,0.0455,0.0382,0.0377,0.0348,0.03,0.0217,0.0214,0.03,0.03,0.0301,0.0302,0,0.0699,0.0755,0.0816,0.0832,0.0884,0.0914,0.0938,0.0947,0.0982,0.0962,0.0977,0.0883,0.0851,0.0716,0.056,0.0543,0.0415,0.0367,0.0274,0.0272,0.0203,0.0197,0.0272,0.0272,0.0272,0.0272,0.0273,0,0.0737,0.0785,0.0844,0.0878,0.096,0.0973,0.1052,0.1063,0.1094,0.1147,0.1048,0.1061,0.0865,0.0761,0.0599,0.0437,0.044,0.0291,0.0256,0.023,0.0227,0.0258,0.0258,0.027,0.027,0.0271,0.0271,0,0.0764,0.0806,0.088,0.0948,0.0981,0.104,0.1141,0.1199,0.1217,0.1279,0.1277,0.1202,0.1075,0.087,0.0661,0.0509,0.0338,0.0274,0.0265,0.0231,0.0209,0.0213,0.0162,0.0161,0.016,0.016,0.016,0,0.0793,0.0831,0.0921,0.0986,0.1027,0.1124,0.1197,0.1257,0.1325,0.1371,0.1405,0.1311,0.1259,0.0957,0.0657,0.0379,0.0355,0.0181,0.0138,0.0228,0.0198,0.0203,0.0208,0.0069,0.0068,0.0067,0.0066,0,0.0844,0.0867,0.0941,0.1045,0.1143,0.1242,0.1351,0.1431,0.1501,0.1546,0.1595,0.156,0.1284,0.0991,0.0622,0.0418,0.0221,0.0157,0.024,0.0119,0.0139,0.0111,0.0118,0.0058,0.0059,0.006,0.006,0.0061,0.0883,0.0916,0.1,0.1102,0.1238,0.1346,0.1437,0.1543,0.1653,0.1724,0.1715,0.1652,0.1343,0.0847,0.0514,0.016,0.0196,0.0052,0.0055,0.0058,0.0077,0.0097,0.0012,0.0013,0.0013,0.0013,0.0014,0,0.0895,0.0934,0.1036,0.1169,0.1328,0.1378,0.1529,0.1603,0.1721,0.1782,0.1808,0.1474,0.1174,0.0834,0.0302,0.0009,-0.0046,-0.0092,-0.0099,-0.0089,-0.0081,-0.007,-0.0174,-0.0175,-0.0176,-0.0177,0,0,0.0897,0.098,0.0996,0.1224,0.1337,0.1503,0.1588,0.1677,0.174,0.1753,0.1714,0.1675,0.1274,0.0851,0.0432,0.0139,0.0088,0.0061,0.0238,0.0286,0.0298,0.0022,0.0053,0,0,0,0,0]}],[{"header":{"parameterUnit":"m.s-1","parameterCategory":2,"la1":30.2991,"la2":30.254,"lo1":-89.0895,"lo2":-89.0444,"dy":0.0017,"dx":0.0017,"nx":28,"ny":28,"refTime":"2025-07-17T03:00:00:Z","depth":"4","parameterNumber":2,"parameterNumberName":"U-component_of_CURRENTS"},"data":[0,0,0,0,0,0,0,0,0,0,0,0,0,0,0,0,0,0,0,0,0,0,0,0,0,0,0,0,0,0,0,0,0,0,0,0,0,0,0,0,0,0,0,0,0,0,0,0,0,0,0,0,0,0,0,0,0,0,0.1546,0.1547,0,0.1629,0.163,0.163,0.1696,0.1697,0.1698,0.1698,0.1787,0.1789,0.179,0,0,0,0,0,0,0,0,0,0,0,0,0,0.1402,0.1404,0.1546,0.1547,0.1548,0.1629,0.163,0.1631,0.1696,0.1697,0.1698,0.1699,0.1787,0.1789,0.179,0,0,0,0,0,0,0,0,0,0,0,0,0,0.147,0.1405,0.1545,0.1592,0.1597,0.1629,0.163,0.1631,0.1695,0.1697,0.1698,0.1699,0.1786,0.1788,0.1791,0.178,0,0,0.1798,0.1799,0,0,0,0,0,0,0,0,0.1466,0.1475,0.1584,0.1589,0.1595,0.1655,0.1612,0.1682,0.1695,0.1656,0.1698,0.17,0.1744,0.175,0.176,0.1784,0.1788,0.1798,0.18,0.1801,0.1801,0,0,0,0,0,0,0,0.1462,0.1472,0.1576,0.1585,0.1592,0.1595,0.1606,0.1625,0.169,0.1659,0.1665,0.1677,0.1747,0.1757,0.1762,0.1789,0.1798,0.18,0.1802,0.1803,0.1916,0.1917,0,0,0,0,0,0,0.1457,0.1468,0.1574,0.1579,0.1535,0.1597,0.1609,0.1633,0.169,0.1701,0.1676,0.168,0.1752,0.1759,0.1766,0.1852,0.1801,0.1803,0.1804,0.1914,0.1916,0.1918,0,0,0,0,0,0,0.1454,0.1466,0.157,0.1526,0.154,0.1598,0.1624,0.1634,0.168,0.1703,0.1714,0.1717,0.1754,0.1762,0.1817,0.1852,0.1804,0.1806,0.1912,0.1915,0.1917,0.1963,0,0,0,0,0,0,0.1449,0.1465,0.1493,0.1526,0.1543,0.1609,0.1623,0.1635,0.1685,0.1692,0.1741,0.1748,0.1755,0.1814,0.1819,0.1855,0.1808,0.191,0.1913,0.1916,0.196,0.1967,0.1973,0,0,0,0,0,0.1444,0.1468,0.1494,0.1508,0.1576,0.161,0.1619,0.1661,0.1686,0.1708,0.1748,0.1749,0.1837,0.1817,0.1823,0.186,0.1909,0.1912,0.1916,0.1957,0.1965,0.1973,0,0,0,0,0,0,0.1417,0.1479,0.1507,0.1551,0.159,0.1622,0.165,0.1679,0.1727,0.1746,0.1767,0.1777,0.184,0.1842,0.182,0.1902,0.1873,0.1878,0.1902,0.1911,0.1917,0.1915,0.181,0,0,0,0,0,0.1426,0.1468,0.1515,0.1554,0.1575,0.162,0.1646,0.1677,0.1717,0.1742,0.1779,0.1817,0.1852,0.1877,0.1905,0.1946,0.1951,0.1975,0.1982,0.1987,0.1991,0.2036,0.2047,0.1929,0.1929,0.1929,0,0,0.1426,0.1466,0.1491,0.1553,0.1587,0.1621,0.164,0.1688,0.1725,0.1742,0.1813,0.1845,0.187,0.1922,0.1949,0.1933,0.2023,0.1992,0.1996,0.1997,0.2041,0.2052,0.2062,0.1932,0.1931,0.1931,0,0,0.1431,0.1485,0.1518,0.1554,0.1616,0.1642,0.1664,0.172,0.1759,0.1819,0.1847,0.1902,0.1953,0.1981,0.1998,0.2057,0.2058,0.2073,0.2105,0.2149,0.2158,0.2167,0.2181,0.2191,0.2074,0.2074,0.2074,0,0.1434,0.1487,0.153,0.1567,0.1604,0.1655,0.1693,0.173,0.1802,0.1844,0.1851,0.1958,0.1978,0.2044,0.2066,0.2072,0.209,0.2071,0.2157,0.2166,0.2174,0.2186,0.2196,0.2077,0.2076,0.2076,0.2076,0,0.1454,0.151,0.153,0.1601,0.1639,0.1684,0.1737,0.1793,0.1847,0.1891,0.1984,0.2016,0.2083,0.2097,0.2098,0.2174,0.2166,0.2161,0.2134,0.2188,0.2198,0.2208,0.208,0.208,0.2079,0.2078,0,0,0.1436,0.1529,0.1543,0.1582,0.1669,0.1694,0.1769,0.1849,0.1909,0.1979,0.2057,0.2118,0.2156,0.2177,0.2197,0.2227,0.2293,0.2223,0.2224,0.2231,0.2381,0.2228,0.2223,0.2312,0.2314,0.2316,0.2361,0,0.145,0.1513,0.1566,0.1634,0.1671,0.1748,0.1807,0.1887,0.1962,0.2047,0.2106,0.2183,0.218,0.2224,0.2259,0.2296,0.2322,0.228,0.2331,0.2332,0.2185,0.223,0.2323,0.2368,0.237,0.2372,0.2373,0,0.1459,0.1503,0.1569,0.166,0.1685,0.1736,0.1854,0.1916,0.2042,0.2106,0.2201,0.2252,0.2334,0.2309,0.2396,0.2376,0.2384,0.2391,0.2393,0.224,0.2197,0.2305,0.239,0.2389,0.2387,0.2386,0.2385,0,0.1414,0.1508,0.1562,0.1595,0.1699,0.1758,0.1823,0.1947,0.2015,0.2158,0.222,0.2328,0.2387,0.243,0.2461,0.2445,0.2531,0.2508,0.2372,0.2361,0.2465,0.2455,0.2555,0.2555,0.2555,0.2555,0.2555,0,0.1404,0.1445,0.155,0.1579,0.1653,0.1735,0.1837,0.1924,0.2053,0.213,0.2249,0.2308,0.2424,0.2485,0.2495,0.2462,0.2566,0.238,0.2366,0.2481,0.2473,0.247,0.246,0.2556,0.2556,0.2556,0.2555,0,0.1335,0.1414,0.1476,0.1593,0.1638,0.1688,0.1835,0.1894,0.203,0.2133,0.2183,0.2327,0.2406,0.2485,0.2559,0.2485,0.2482,0.2441,0.2558,0.2551,0.2269,0.2261,0.2284,0.2279,0.2275,0.2271,0.2268,0,0.1304,0.1333,0.1465,0.1513,0.1574,0.1669,0.1734,0.1878,0.1941,0.2116,0.2144,0.2278,0.2356,0.2342,0.243,0.2444,0.2412,0.2382,0.2315,0.2259,0.2245,0.2243,0.2241,0.2262,0.2261,0.2259,0.2258,0,0.123,0.1291,0.1327,0.1427,0.1507,0.1589,0.1691,0.1726,0.1881,0.2014,0.207,0.2112,0.2191,0.225,0.2284,0.2284,0.2388,0.2337,0.2345,0.2282,0.2232,0.2222,0.2224,0.2244,0.2246,0.2247,0.2248,0,0.1159,0.1174,0.1239,0.1311,0.1407,0.1469,0.1547,0.1617,0.1696,0.1889,0.1903,0.2039,0.2176,0.2165,0.2194,0.2193,0.2148,0.2058,0.2079,0.2096,0.2012,0.192,0.1826,0,0,0,0,0,0.1084,0.1089,0.1128,0.1199,0.1284,0.1355,0.1492,0.1572,0.1724,0.172,0.1811,0.1878,0.1922,0.1991,0.1952,0.2092,0.2148,0.2032,0.2053,0.2163,0.218,0.2097,0,0,0,0,0,0,0.1042,0.1057,0.1068,0.1072,0.1116,0.1201,0.1293,0.1407,0.1423,0.1589,0.1637,0.175,0.1837,0.1933,0.1913,0.1932,0.1901,0.2122,0.2117,0.2154,0.2169,0.2183,0.2103,0,0,0,0,0]},{"header":{"parameterUnit":"m.s-1","parameterCategory":2,"la1":30.2991,"la2":30.254,"lo1":-89.0895,"lo2":-89.0444,"dy":0.0017,"dx":0.0017,"nx":28,"ny":28,"refTime":"2025-07-17T03:00:00:Z","depth":"4","parameterNumber":3,"parameterNumberName":"V-component_of_CURRENTS"},"data":[0,0,0,0,0,0,0,0,0,0,0,0,0,0,0,0,0,0,0,0,0,0,0,0,0,0,0,0,0,0,0,0,0,0,0,0,0,0,0,0,0,0,0,0,0,0,0,0,0,0,0,0,0,0,0,0,0,0,0.0064,0.0064,0,0.0032,0.0031,0.0031,0.0003,0.0003,0.0003,0.0003,-0.0053,-0.0055,-0.0056,0,0,0,0,0,0,0,0,0,0,0,0,0,0.0033,0.0034,0.0064,0.0064,0.0063,0.0032,0.0031,0.0031,0.0003,0.0003,0.0003,0.0003,-0.0053,-0.0054,-0.0056,0,0,0,0,0,0,0,0,0,0,0,0,0,0.0027,0.0034,0.0064,0.0047,0.0045,0.0032,0.0031,0.003,0.0003,0.0003,0.0003,0.0003,-0.0052,-0.0054,-0.0056,-0.0062,0,0,-0.0062,-0.0063,0,0,0,0,0,0,0,0,0.0028,0.0028,0.005,0.0048,0.0046,0.0022,-0.0,-0.0001,0.0004,0.0018,0.0003,0.0002,-0.0029,-0.0033,-0.004,-0.0065,-0.0067,-0.0062,-0.0064,-0.0064,-0.0065,0,0,0,0,0,0,0,0.0028,0.0029,0.005,0.0049,0.0047,0.0017,0.0016,-0.0001,-0.0005,0.0017,0.0015,0.0013,-0.0031,-0.0038,-0.0041,-0.0068,-0.0062,-0.0064,-0.0065,-0.0066,-0.0102,-0.0102,0,0,0,0,0,0,0.0039,0.003,0.0051,0.0049,0.0037,0.0018,0.0017,0.0029,-0.0004,-0.0009,0.0014,0.0012,-0.0034,-0.0039,-0.0044,-0.0036,-0.0064,-0.0066,-0.0067,-0.0102,-0.0102,-0.0102,0,0,0,0,0,0,0.0038,0.0041,0.0052,0.0039,0.0038,0.002,0.0033,0.0029,0.0026,-0.0006,-0.0012,0.0015,-0.0035,-0.0041,-0.0053,-0.004,-0.0067,-0.0069,-0.0102,-0.0102,-0.0102,-0.0033,0,0,0,0,0,0,0.0038,0.0042,0.0052,0.004,0.0039,0.0054,0.0033,0.0028,0.0025,0.0023,-0.0007,-0.0013,-0.0035,-0.005,-0.0055,-0.0043,-0.007,-0.0103,-0.0102,-0.0102,-0.0036,-0.003,-0.0026,0,0,0,0,0,0.0037,0.0056,0.0054,0.0056,0.0056,0.0055,0.0052,0.0035,0.0026,0.003,0.0008,-0.0011,-0.0051,-0.0051,-0.0057,-0.0045,-0.0103,-0.0102,-0.0102,-0.0038,-0.0031,-0.0026,0,0,0,0,0,0,0.0042,0.0055,0.0052,0.0072,0.0068,0.0051,0.0052,0.0042,0.0028,0.0025,-0.0007,-0.0014,-0.002,-0.0044,-0.0043,-0.0056,-0.0081,-0.0082,-0.003,-0.0025,-0.002,-0.0004,-0.0072,0,0,0,0,0,0.0051,0.0073,0.007,0.0085,0.0086,0.007,0.0067,0.0059,0.0045,0.0039,0.002,-0.0005,-0.0024,-0.0032,-0.0053,-0.0057,-0.0087,-0.0056,-0.0051,-0.0046,-0.0039,-0.0076,-0.0074,-0.01,-0.01,-0.01,0,0,0.0053,0.0065,0.0075,0.0088,0.0082,0.0091,0.0067,0.007,0.0078,0.0035,0.0039,0.0013,-0.0022,-0.0027,-0.0032,-0.0043,-0.0055,-0.0046,-0.0041,-0.0036,-0.0076,-0.0073,-0.0071,-0.01,-0.01,-0.01,0,0,0.0071,0.0084,0.0106,0.0111,0.0114,0.0108,0.0114,0.0105,0.0102,0.0101,0.0071,0.0054,0.0029,0.0008,-0.0007,0.001,-0.0029,0.0003,0.0043,0.0007,0.0009,0.001,-0.0021,-0.0023,0.0007,0.0007,0.0007,0,0.0073,0.0103,0.0108,0.0128,0.0134,0.0121,0.0137,0.0136,0.0125,0.0125,0.0112,0.0073,0.0045,0.0034,0.0042,0.0023,-0.0003,0.0027,0.0014,0.0015,0.0015,-0.0018,-0.0021,0.001,0.001,0.001,0.0009,0,0.0103,0.0127,0.0139,0.0167,0.0173,0.0186,0.0188,0.0196,0.019,0.0183,0.0174,0.0135,0.0113,0.0101,0.0079,0.007,0.0049,0.0025,0.0004,0.0022,-0.0014,-0.0019,0.0015,0.0014,0.0013,0.0012,0,0,0.0112,0.0153,0.0159,0.0175,0.0197,0.0204,0.0228,0.024,0.0254,0.024,0.0247,0.0214,0.0194,0.0175,0.0141,0.0113,0.0093,0.0079,0.0076,0.0056,0.0017,-0.0002,-0.0009,0.0067,0.0067,0.0066,-0.0008,0,0.0133,0.0176,0.0193,0.0229,0.0247,0.0256,0.0278,0.0289,0.0291,0.0297,0.0262,0.0255,0.0222,0.0213,0.0182,0.0115,0.0084,0.0116,-0.0005,-0.0008,-0.0021,-0.0014,0.0065,-0.0011,-0.0013,-0.0013,-0.0014,0,0.0155,0.0184,0.0223,0.0263,0.0272,0.0296,0.0328,0.035,0.036,0.036,0.0351,0.0322,0.0293,0.0254,0.016,0.0183,0.0111,0.0053,0.0049,0.0005,-0.0035,-0.0037,-0.0023,-0.0022,-0.0021,-0.0021,-0.002,0,0.0152,0.0205,0.0236,0.0251,0.0295,0.0319,0.0345,0.0369,0.0398,0.0406,0.0416,0.0373,0.0353,0.0265,0.0162,0.0159,0.0045,0.002,-0.0067,-0.0069,-0.006,-0.0061,-0.0055,-0.0055,-0.0055,-0.0055,-0.0054,0,0.0163,0.0186,0.0243,0.0261,0.0312,0.0335,0.0389,0.0411,0.0445,0.0483,0.0452,0.0455,0.0354,0.0281,0.0177,0.0049,0.0055,-0.0056,-0.0088,-0.003,-0.0027,-0.0064,-0.0064,-0.0057,-0.0057,-0.0056,-0.0056,0,0.0138,0.0176,0.022,0.0282,0.0313,0.0348,0.0433,0.0474,0.0498,0.0544,0.0552,0.0519,0.0432,0.0314,0.0168,0.0072,-0.0054,-0.0108,-0.0026,-0.0054,-0.0149,-0.0145,-0.0207,-0.0208,-0.0209,-0.021,-0.0211,0,0.0129,0.0148,0.0236,0.0285,0.0318,0.0387,0.0448,0.0502,0.0555,0.0581,0.0606,0.0542,0.0501,0.0303,0.0157,-0.0043,-0.0081,-0.0154,-0.0156,-0.0139,-0.0164,-0.0158,-0.0153,-0.0213,-0.0213,-0.0213,-0.0213,0,0.0109,0.014,0.0176,0.0284,0.0362,0.0447,0.0536,0.0581,0.0644,0.0654,0.0671,0.0574,0.0469,0.0317,0.0161,0.001,-0.0108,-0.0166,-0.0165,-0.0168,-0.0146,-0.0169,-0.0163,-0.0217,-0.0217,-0.0216,-0.0216,0,0.0098,0.0122,0.0194,0.0284,0.0387,0.0497,0.0539,0.0621,0.0677,0.0718,0.0715,0.0608,0.0555,0.0341,0.0193,0.005,0.0004,-0.0056,-0.0062,-0.006,-0.0002,0.0048,0.0013,0,0,0,0,0,0.0102,0.014,0.0207,0.0321,0.0418,0.0491,0.0604,0.0643,0.0702,0.0732,0.0736,0.0647,0.0445,0.0359,0.0217,0.0134,-0.0051,-0.0044,-0.0129,-0.0237,-0.0233,-0.0193,0,0,0,0,0,0,0.0115,0.0167,0.0197,0.0335,0.0421,0.0544,0.0621,0.0658,0.0689,0.072,0.0635,0.0589,0.0406,0.0537,0.0211,0.0163,0.0082,-0.0133,-0.0137,-0.024,-0.0236,-0.0233,-0.019,0,0,0,0,0]}]]